Location: Charleville
(26.4021°S, 146.2454°E)
Time: 05:20:06
(UTC+10:00)

X-37B - Pass Details

Date: 09 December 2021
Orbit: 334 x 337 km, 45.0° (Epoch: 11 January)

Event Time Altitude Azimuth Distance (km) Brightness Sun altitude
Exits shadow 04:14:02 26° 305° (NW) 721 1.3 -12.6°
Maximum altitude 04:15:30 80° 219° (SW) 348 0.3 -12.4°
Drops below altitude 10° 04:18:24 10° 132° (SE) 1,290 4.7 -11.8°
Sets 04:20:25 0° 131° (SE) 2,135 6.4 -11.4°
